Other Public Products
Issued by NWS Grand Forks, ND

Home | Current Version | Previous Version | Text Only | Print | Product List | Glossary Off
Versions: 1 2 3 4 5 6 7 8 9 10 11 12 13 14 15 16 17 18 19 20 21 22 23 24 25 26 27 28 29 30 31 32 33 34 35 36 37 38 39 40 41 42 43 44 45 46 47 48 49 50

836
FPUS83 KFGF 290310
OPUFGF
PRAIRIE TO PINES WEATHER ROUNDUP
NATIONAL WEATHER SERVICE EASTERN NORTH DAKOTA/GRAND FORKS ND
1000 PM CDT THU JUL 28 2016

 **SATELLITE DATA USED TO AUGMENT SKY COVER AT AUTOMATED STATIONS**
 *****  WEATHER ACROSS EASTERN NORTH DAKOTA  *****

CITY           SKY/WX    TMP DP  RH WIND       PRES   REMARKS
GRAND FORKS    CLEAR     61  56  83 NW5       30.09R
GRAND FORKS AF NOT AVBL
GRAND CITY NWS   N/A     64 N/A N/A NW5         N/A
BUXTON           N/A     67  63  85 CALM        N/A
DEVILS LAKE    CLEAR     64  58  80 NE5       30.12R
FARGO          CLEAR     66  59  78 N7        30.08R
WAHPETON ARPT  PTCLDY    68  59  73 N7        30.06R
$$

 *****  WEATHER ACROSS CENTRAL AND WESTERN NORTH DAKOTA  *****

CITY           SKY/WX    TMP DP  RH WIND       PRES   REMARKS
JAMESTOWN      MOCLDY    65  61  87 NE5       30.10R
BISMARCK       CLOUDY    71  55  56 N6        30.11S
MINOT          PTCLDY    67  53  61 N3        30.12R
MINOT AFB      NOT AVBL
GARRISON         N/A     64  58  80 CALM      30.12S
WILLISTON      PTCLDY    68  52  56 CALM      30.13R
DICKINSON      CLOUDY    61  57  87 SE6       30.13S
HETTINGER      CLOUDY    63  57  81 E5        30.16R
$$

 *****  OTHER OBSERVATIONS NORTHEAST NORTH DAKOTA  *****

CITY           SKY/WX    TMP DP  RH WIND       PRES   REMARKS
WALHALLA       NOT AVBL
LANGDON        FAIR      59  57  94 CALM      30.14R
CAVALIER       FAIR      61  57  88 W3        30.10R
GRAFTON        FAIR      64  59  82 NW5       30.11R
CANDO          NOT AVBL
FORT TOTTEN      N/A     63  56  79 NE2       29.95
ROLLA          FAIR      59  57  94 W3        30.15R
RUGBY          NOT AVBL
 ***** THE ABOVE OBSERVATIONS ARE NON NWS ARE NOT QUALITY
        CONTROLLED AND MAY MIS-REPORT RAIN FOR SNOW...
$$

 *****  OTHER OBSERVATIONS SOUTHEAST NORTH DAKOTA *****

CITY           SKY/WX    TMP DP  RH WIND       PRES   REMARKS
COOPERSTOWN    NOT AVBL
VALLEY CITY    FAIR      64  64 100 NE5       30.12R
OAKES            N/A    N/A N/A N/A MISG        N/A
GWINNER        MOCLDY    70  63  78 N6        30.09R
SHEYENNE NWR     N/A     68  59  74 N3        29.95S
BUFFALO          N/A     65  58  78 NE6         N/A
WYNDMERE       NOT AVBL
 ***** THE ABOVE OBSERVATIONS ARE NON NWS ARE NOT QUALITY
       CONTROLLED AND MAY MIS-REPORT RAIN FOR SNOW...
$$

  *****  WEATHER ACROSS NORTHERN MINNESOTA  *****

CITY           SKY/WX    TMP DP  RH WIND       PRES   REMARKS
FLAG ISLAND    CLEAR     70  52  52 CALM      30.08S
WARROAD        CLEAR     61  57  88 CALM      30.10R
ROSEAU         CLEAR     61  55  82 E3        30.09S
HALLOCK        CLEAR     64  57  77 NW5       30.08R
THF RVR FALLS  CLEAR     65  56  72 NE5       30.09R
HALSTAD          N/A     62  57  83 N7          N/A
FOSSTON        CLEAR     57  50  77 CALM      30.09S
BAUDETTE       CLEAR     60  55  83 N3        30.09R
WASKISH        PTCLDY    63  57  82 CALM      30.08S
CROOKSTON      CLEAR     61  57  88 W5        30.09R
$$
  *****  WEATHER ACROSS CENTRAL AND WEST MINNESOTA  *****

CITY           SKY/WX    TMP DP  RH WIND       PRES   REMARKS
BEMIDJI        CLEAR     61  55  82 CALM      30.09R
PARK RAPIDS    CLEAR     69  56  62 NE3       30.08S
WADENA         CLEAR     63  57  82 CALM      30.08R
DETROIT LAKES  CLEAR     68  59  73 NE5       30.10R
MOORHEAD       CLEAR     66  61  82 N6        30.08R
FERGUS FALLS   MOCLDY    72  61  68 CALM      30.07R
ELBOW LAKE     FAIR      68  61  78 E5        30.07R
MORRIS MN      CLOUDY    70  63  78 CALM      30.06S
STAPLES        CLEAR     64  55  72 CALM      30.07S
WHEATON        NOT AVBL
$$
  *****  WEATHER ELSEWHERE ACROSS MINNESOTA  *****

CITY           SKY/WX    TMP DP  RH WIND       PRES   REMARKS
DULUTH         PTCLDY    58  52  80 E5        30.10S
INTRNTL FALLS  CLEAR     57  55  93 CALM      30.08R
ELY            CLEAR     61  48  63 CALM      30.12R
CLOQUET        CLEAR     59  52  77 CALM      30.10S
BRAINERD       CLEAR     65  58  78 CALM      30.08R
HIBBING        CLEAR     56  53  90 CALM      30.11R
ALEXANDRIA     CLEAR     66  57  72 S5        30.09R
SAINT CLOUD    CLEAR     63  57  81 CALM      30.06R
MINNEAPOLIS    PTCLDY    70  57  63 NE6       30.03S
$$

  *****  WEATHER ACROSS SOUTH DAKOTA  *****

CITY           SKY/WX    TMP DP  RH WIND       PRES   REMARKS
SIOUX FALLS    PTCLDY    64  58  80 NE8       30.06R
BROOKINGS      PTCLDY    65  58  78 NE6       30.08R
WATERTOWN      CLOUDY    70  57  63 E3        30.09R
HURON          CLOUDY    71  56  58 SE6       30.06R
SISSETON         N/A     68  64  87 CALM      30.06R
ABERDEEN       CLEAR     67  61  81 E3        30.06S
MITCHELL       MOCLDY    69  61  75 E5        30.06R
PIERRE         CLOUDY    65  62  90 SW3       30.07S
MOBRIDGE       MOCLDY    68  56  65 N8        30.07S
RAPID CITY     CLEAR     62  57  83 NE5       30.14R
$$

  *****  SOME WEATHER IN NEARBY STATES *****

CITY           SKY/WX    TMP DP  RH WIND       PRES   REMARKS
GLASGOW MT     CLEAR     69  57  65 E8        30.10R
GREAT FALLS MT CLEAR     77  45  32 E8        30.07S
CHEYENNE WY    CLEAR     63  55  75 S6        30.27R
SCOTTSBLUFF NE CLOUDY    70  61  73 E7        30.15S
OMAHA NE       CLOUDY    75  62  64 NE7       30.01R
DES MOINES IA  PTCLDY    73  63  70 N7        29.97R
DAVENPORT IA   CLEAR     70  67  90 W6        29.92R
CHICAGO IL     PTCLDY    72  69  90 CALM      29.91F
EAU CLAIRE WI  CLOUDY    65  62  90 CALM      30.03S
LA CROSSE WI   CLOUDY    65  62  90 N6        29.99R
$$

  *****  SOME NATIONAL WEATHER *****

CITY           SKY/WX    TMP DP  RH WIND       PRES   REMARKS
LA GUARDIA NY  LGT RAIN  80  69  69 NW7       29.87R
RALEIGH NC     PTCLDY    85  71  63 SW14      29.86S HX  90
ATLANTA GA     MOCLDY    80  71  74 W7        30.02R
NEW ORLEANS LA MOCLDY    84  72  67 CALM      30.02R
OKLAHOMA CITY  CLOUDY    83  72  69 CALM      29.95R
ALBUQUERQUE NM CLOUDY    88  44  21 S3        30.12R
SALT LAKE CITY PTCLDY    92  37  14 N7        29.99F
LOS ANGELES CA PTCLDY    71  64  78 W12       29.83R
BOISE ID       CLEAR     92  37  14 N7        29.92F
SEATTLE WA     PTCLDY    83  61  47 N9        30.03S
$$

*** WEATHER ACROSS MANITOBA...SASKATCHEWAN AND ONTARIO ***
                ***ONTARIO***

CITY           SKY/WX    TMP DP  RH WIND       PRES   REMARKS
GERALDTON      PTCLDY    61  52  72 CALM      30.09R
THUNDER BAY    PTCLDY    57  55  94 NW5       30.09R
SIOUX LOOKOUT  PTCLDY    54  52  94 CALM      30.09S
TORONTO        CLOUDY    73  66  78 N14G21    29.92S
BIG TROUT LK   CLEAR     55  52  88 S3        30.04S
PICKLE LAKE    NOT AVBL
DRYDEN         CLEAR     66  50  55 E2        30.10R
KENORA         CLEAR     64  52  63 CALM      30.11R
$$
                *** MANITOBA***

CITY           SKY/WX    TMP DP  RH WIND       PRES   REMARKS
BRANDON        PTCLDY    63  55  77 SW7       30.11R
DAUPHIN        CLEAR     64  59  82 SW3       30.06R
ISLAND LAKE    MOCLDY    70  59  68 NE2       30.02S
PILOT MOUND      N/A     61  57  88 SE3         N/A
THE PAS        PTCLDY    68  61  77 CALM      30.01R
THOMPSON       MOCLDY    63  59  88 VRB2      30.01S
WINNIPEG       PTCLDY    59  55  88 NW3       30.10R
LYNN LAKE      PTCLDY    68  57  68 MISG      30.01R
CHURCHILL      PTCLDY    52  46  82 E5        30.09S
GILLAM         CLOUDY    59  59 100 E2        30.03F
$$
                ***SASKATCHEWAN***

CITY           SKY/WX    TMP DP  RH WIND       PRES   REMARKS
ESTEVAN        MOCLDY    63  57  82 SE6       30.13R
KINDERSLEY     MOCLDY    63  59  88 SE3       30.06S
LLOYDMINSTER   CLOUDY    66  59  77 SW6       30.05F
PRINCE ALBERT  LGT RAIN  64  61  88 W9        30.03R
REGINA         PTCLDY    64  50  59 SE7       30.09F
YORKTON        CLEAR     68  57  68 S7        30.08S  C1F1C2F2C3F3C4F4C5F5C6F6C7F7C8F8C9F9CaFaCbFbCcFcCdFdCe!



USA.gov is the U.S. government's official web portal to all federal, state and local government web resources and services.